FW6280 Weather Reports


Display with metric or nautical units.
time (UTC)temp
F
wind
direction
speed
MPH
gust
MPH
rain 1hr
in
rain 24hr
in
rain mn
in
humidity
%
barometer
mb
20260901010052 59 360 3.0 14.0 0.00 0.00 0.00 86 1011.1
20260901004514 61 360 3.0 11.0 0.00 0.00 0.00 83 1011.1
20260901003049 62 360 3.0 9.0 0.00 0.00 0.00 81 1011.0
20260901001504 63 360 3.0 9.0 0.00 0.00 0.00 82 1011.1
20260901000031 63 360 2.0 11.0 0.00 0.00 0.00 83 1011.1
20260831234606 62 360 3.0 9.0 0.00 0.00 0.00 85 1011.0
20260831233035 61 360 4.0 13.0 0.00 0.00 0.00 84 1011.1
20260831231529 62 360 3.0 12.0 0.00 0.00 0.00 85 1011.2
20260831230042 62 360 4.0 12.0 0.00 0.00 0.00 84 1011.1
20260831224501 63 360 3.0 12.0 0.00 0.00 0.00 84 1011.3
20260831213040 62 360 6.0 16.0 0.00 0.00 0.00 84 1011.4
20260831211609 61 360 7.0 19.0 0.00 0.00 0.00 84 1011.3
20260831210026 61 360 6.0 17.0 0.00 0.00 0.00 85 1011.3
20260831204544 61 360 7.0 18.0 0.00 0.00 0.00 84 1011.2
20260831203102 62 360 4.0 17.0 0.00 0.00 0.00 84 1011.1
20260831201538 62 360 4.0 15.0 0.00 0.00 0.00 84 1011.2
20260831194605 61 360 8.0 18.0 0.00 0.00 0.00 86 1011.3
20260831193052 61 360 8.0 18.0 0.00 0.00 0.00 88 1011.4
20260831191518 60 360 7.0 15.0 0.00 0.00 0.00 89 1011.3
20260831190040 60 360 7.0 16.0 0.00 0.00 0.00 91 1011.3
20260831184613 59 360 5.0 14.0 0.00 0.00 0.00 92 1011.3
20260831183022 59 360 6.0 23.0 0.00 0.00 0.00 92 1011.4
20260831181555 59 360 3.0 8.0 0.00 0.00 0.00 94 1011.4
20260831180031 58 360 4.0 13.0 0.00 0.00 0.00 95 1011.3
20260831174540 57 360 4.0 14.0 0.00 0.00 0.00 96 1010.9
20260831173009 57 360 3.0 13.0 0.00 0.00 0.00 97 1011.0
20260831171537 56 360 3.0 10.0 0.00 0.00 0.00 97 1010.9
20260831170056 55 360 3.0 12.0 0.00 0.00 0.00 97 1011.0
20260831164518 54 360 4.0 10.0 0.00 0.00 0.00 97 1011.0
20260831163053 54 360 1.0 8.0 0.00 0.00 0.00 97 1011.2
20260831161519 54 360 2.0 10.0 0.00 0.00 0.00 97 1011.3
20260831160037 53 360 0.0 9.0 0.00 0.00 0.00 97 1011.2
20260831154505 53 360 0.0 6.0 0.00 0.00 0.00 97 1011.2
20260831153036 53 360 4.0 11.0 0.00 0.00 0.00 97 1011.2
20260831151502 52 360 3.0 9.0 0.00 0.00 0.00 97 1011.3
20260831150037 52 360 0.0 8.0 0.00 0.00 0.00 97 1010.9
20260831144609 52 360 0.0 3.0 0.00 0.00 0.00 97 1010.8
20260831143033 52 360 0.0 1.0 0.00 0.00 0.00 96 1010.6
20260831141555 51 360 0.0 2.0 0.00 0.00 0.00 96 1010.6
20260831140025 51 360 0.0 3.0 0.00 0.00 0.00 96 1010.6
20260831134544 50 360 0.0 3.0 0.00 0.00 0.00 96 1010.5
20260831133011 48 360 0.0 0.0 0.00 0.00 0.00 96 1010.5
20260831131544 47 360 0.0 0.0 0.00 0.00 0.00 95 1010.4
20260831130016 47 360 0.0 0.0 0.00 0.00 0.00 95 1010.3
20260831124543 48 360 0.0 0.0 0.00 0.00 0.00 95 1010.3
20260831123101 48 360 0.0 0.0 0.00 0.00 0.00 95 1010.4
20260831121534 48 360 0.0 0.0 0.00 0.00 0.00 95 1010.6
20260831120101 48 360 0.0 0.0 0.00 0.00 0.00 94 1010.6
20260831114532 49 360 0.0 0.0 0.00 0.00 0.00 95 1010.5
20260831113050 50 360 0.0 1.0 0.00 0.00 0.00 95 1010.4
20260831111516 49 360 0.0 3.0 0.00 0.00 0.00 95 1010.6
20260831110122 49 360 0.0 0.0 0.00 0.00 0.00 94 1010.4
20260831104516 48 360 0.0 0.0 0.00 0.00 0.00 94 1010.6
20260831103033 49 360 0.0 0.0 0.00 0.00 0.00 94 1010.6
20260831101552 49 360 0.0 0.0 0.00 0.00 0.00 94 1010.7
20260831100020 50 360 0.0 0.0 0.00 0.00 0.00 94 1010.6
20260831094553 50 360 0.0 0.0 0.00 0.00 0.00 94 1010.7
20260831093020 51 360 0.0 0.0 0.00 0.00 0.00 94 1010.7
20260831091547 51 360 0.0 0.0 0.00 0.00 0.00 93 1010.9
20260831090007 51 360 0.0 0.0 0.00 0.00 0.00 93 1010.9
20260831084549 52 360 0.0 2.0 0.00 0.00 0.00 93 1011.0
20260831083056 52 360 0.0 3.0 0.00 0.00 0.00 93 1011.1
20260831081526 52 360 0.0 0.0 0.00 0.00 0.00 93 1011.3
20260831080053 52 360 0.0 0.0 0.00 0.00 0.00 93 1011.5
20260831074535 53 360 0.0 1.0 0.00 0.00 0.00 92 1011.5
20260831073106 53 360 1.0 4.0 0.00 0.00 0.00 92 1011.6
20260831071555 53 360 2.0 4.0 0.00 0.00 0.00 92 1011.8
20260831070031 54 360 0.0 4.0 0.00 0.00 0.00 91 1011.9
20260831064542 54 360 1.0 4.0 0.00 0.00 0.00 91 1012.0
20260831063016 54 360 0.0 3.0 0.00 0.00 0.00 90 1012.2
20260831061541 55 360 0.0 4.0 0.00 0.00 0.00 90 1012.2
20260831060009 55 360 2.0 5.0 0.00 0.00 0.00 89 1012.3
20260831054544 55 360 1.0 4.0 0.00 0.00 0.00 88 1012.5
20260831053058 55 360 0.0 3.0 0.00 0.00 0.00 86 1012.7
20260831051527 56 360 0.0 1.0 0.00 0.00 0.00 85 1013.0
20260831050051 57 360 2.0 5.0 0.00 0.00 0.00 85 1013.0
20260831044604 58 360 2.0 5.0 0.00 0.00 0.00 84 1013.1
20260831043033 58 360 1.0 8.0 0.00 0.00 0.00 84 1013.1
20260831041607 59 360 3.0 8.0 0.00 0.00 0.00 84 1013.0
20260831040045 59 360 2.0 9.0 0.00 0.00 0.00 83 1013.1
20260831034549 59 360 4.0 11.0 0.00 0.00 0.00 83 1013.2
20260831033020 59 360 3.0 14.0 0.00 0.00 0.00 82 1013.1
20260831031554 60 360 2.0 10.0 0.00 0.00 0.00 82 1013.2
20260831030036 60 360 6.0 11.0 0.00 0.00 0.00 81 1013.2
20260831024536 61 360 10.0 16.0 0.00 0.00 0.00 81 1013.2
20260831023004 60 360 8.0 15.0 0.00 0.00 0.00 82 1013.2
20260831021537 61 360 8.0 14.0 0.00 0.00 0.00 82 1013.3
20260831020004 61 360 12.0 18.0 0.00 0.00 0.00 81 1013.4
20260831014546 61 360 9.0 19.0 0.00 0.00 0.00 80 1013.6
20260831013059 62 360 11.0 20.0 0.00 0.00 0.00 79 1013.7
20260831011533 62 360 12.0 19.0 0.00 0.00 0.00 79 1013.6